SL-8 DEB, 2934

Orbit data source: Space-Track

SL-8 DEB, 2934 is space debris in LEO originally from a launch on Mon, 15 Mar 1965 UTC launched from the Tyuratam Missile And Space Complex (TTMTR). Debris objects in space refer to the collection of defunct objects orbiting the Earth. Examples of debris include non-operational satellites, rocket bodies, and fragments generated from explosions, collisions, or faulty payload assembly.

Loading next visibility...
Identifier
2934, 1965-020EM
Orbit
LEO
Country
Flag of CISCIS
Related business
Manufacturer
Unknown
Mission
Spacecraft
Bus & Motor
Unknown
Mass
Unknown
Launch date (UTC)
1965-03-15 (61 years ago)
Launch vehicle
Unknown
Launch site
Tyuratam Missile And Space Complex (TTMTR)
Object type
Payload
Rocket body
Debris
Shape & HBR
Unknown shape, 0.2 m
Radar Cross Section
Small (<0.1 m²)

Expand to show TLE details & history
Last TLE update: 13 hours ago

TLE from 13 hours ago
0 SL-8 DEB
1  2934U 65020EM  26131.10837323 -.00000137  00000-0 -21185-3 0  9994
2  2934  55.5940 267.9227 0353419 200.8667 337.6918 12.50919176697456
Epoch: 2026-05-11T02:36Z
TLE epoch observation values (Epoch: 2026-05-11T02:36:03.447Z)
Latitude
2.4496°
Longitude
178.33614°
Altitude
1,206.564 km
Speed
7.369 km/s
True Right ascension
05h 45m 00s
True Declination
2° 26' 09"
Sunlit
Object was in daylight at epoch
Visualization orbit readout
Latitude
Unknown
Longitude
Unknown
Altitude
Unknown
Speed
Unknown
Apparent Right ascension
Unknown
Apparent Declination
Unknown
Sunlit
N/A
Visualization observer readout
Local Sidereal Time
23:40:14
Azimuth
Unknown
Elevation
Unknown
Doppler factor
Unknown
Orbital elements
Apogee altitude
1,737.572 km
Perigee altitude
1,183.505 km
Semi-major axis
7,838.676 km
Eccentricity
0.03534
Inclination
55.594°
RAAN
267.9227°
Arg. of periapsis
200.8667°
True anomaly
336.08933°
Mean anomaly
337.6918°
Eccentric anomaly
336.89725°
Mean motion
3.12737 °/min
Orbital period
115.11 mins
BSTAR
-0.00021185
Loading maneuver chart data...
Computing Atmospheric mass density...
Loading historical data...
Loading historical data...
Loading historical data...
Loading historical data...
Loading historical data...
Loading historical data...
Loading historical data...

Documentation

Showing up to 5 results
|